Weather History for Corpus Christi, TX

Change the Weather History Date:

Friday, October 4, 2013

  Actual Average Record
Temperature  
Mean Temperature 84 °F 77 °F  
Max Temperature 93 °F 87 °F 96 °F (1990)
Min Temperature 74 °F 68 °F 52 °F (1961)
Degree Days  
Heating Degree Days 0 0  
Month to date heating degree days 0 0  
Since 1 July heating degree days 0 0  
Cooling Degree Days 19 12  
Month to date cooling degree days 80 51  
Year to date cooling degree days 3675 3094  
Growing Degree Days 33 (Base 50)    
Moisture  
Dew Point 72 °F    
Average Humidity 71    
Maximum Humidity 93    
Minimum Humidity 49    
Precipitation  
Precipitation 0.00 in 0.12 in 4.26 in (1959)
Month to date precipitation 0.24 0.50  
Year to date precipitation 17.56 24.82  
Snow  
Snow 0.00 in - - ()
Month to date snowfall 0.0  
Since 1 July snowfall 0.0  
Since 1 September snowfall 0.0  
Snow Depth 0.00 in    
Sea Level Pressure  
Sea Level Pressure 29.87 in    
Wind  
Wind Speed 10 mph (SSE)    
Max Wind Speed 21 mph    
Max Gust Speed 26 mph    
Visibility 10 miles    
Events      
T = Trace of Precipitation, MM = Missing Value Source: NWS Daily Summary

Daily Weather History Graph

Daily Weather History Graph

Search for Another Location

Airport:

Trip Planner

Search our weather history database for the weather conditions in past years. The results will help you decide how hot, cold, wet, or windy it might be!

Date:

Astronomy

Oct. 04, 2013 Rise Set
Actual Time 7:24 AM CDT 7:12 PM CDT
Civil Twilight 7:01 AM CDT 7:35 PM CDT
Nautical Twilight 6:33 AM CDT 8:02 PM CDT
Astronomical Twilight 6:06 AM CDT 8:30 PM CDT
Moon 7:00 AM CDT (10/4) 6:59 PM CDT (10/4)
Length of Visible Light 12h 34m
Length of Day
11h 47m
Waning Crescent, 0% of the Moon is Illuminated
Oct 4
Waning Crescent
Oct 4
New
Oct 11
First Quarter
Oct 18
Full
Oct 26
Last Quarter

Hourly Weather History & Observations

Time (CDT) Temp. Heat Index Dew Point Humidity Pressure Visibility Wind Dir Wind Speed Gust Speed Precip Events Conditions
12:51 AM 77.0 °F - 72.0 °F 84% 29.88 in 10.0 mi SSE 5.8 mph - N/A   Partly Cloudy
1:51 AM 75.9 °F - 72.0 °F 87% 29.88 in 10.0 mi SSE 4.6 mph - N/A   Partly Cloudy
2:51 AM 75.9 °F - 72.0 °F 87% 29.87 in 10.0 mi SE 4.6 mph - N/A   Partly Cloudy
3:51 AM 75.9 °F - 72.0 °F 87% 29.86 in 10.0 mi Calm Calm - N/A   Scattered Clouds
4:51 AM 73.9 °F - 71.1 °F 91% 29.86 in 10.0 mi SW 3.5 mph - N/A   Partly Cloudy
5:51 AM 75.0 °F - 72.0 °F 90% 29.86 in 10.0 mi South 3.5 mph - N/A   Scattered Clouds
6:51 AM 75.0 °F - 72.0 °F 90% 29.88 in 10.0 mi Calm Calm - N/A   Partly Cloudy
7:51 AM 75.9 °F - 72.0 °F 87% 29.88 in 10.0 mi SSE 3.5 mph - N/A   Partly Cloudy
8:51 AM 80.1 °F 84.5 °F 73.9 °F 81% 29.89 in 10.0 mi SSE 3.5 mph - N/A   Partly Cloudy
9:51 AM 84.9 °F 91.4 °F 73.0 °F 67% 29.90 in 10.0 mi South 12.7 mph - N/A   Scattered Clouds
10:51 AM 89.1 °F 96.0 °F 72.0 °F 57% 29.90 in 10.0 mi South 11.5 mph - N/A   Scattered Clouds
11:51 AM 90.0 °F 96.4 °F 71.1 °F 54% 29.90 in 10.0 mi South 9.2 mph 21.9 mph N/A   Scattered Clouds
12:51 PM 93.0 °F 100.1 °F 71.1 °F 49% 29.88 in 10.0 mi SSE 17.3 mph 23.0 mph N/A   Scattered Clouds
1:51 PM 91.9 °F 100.7 °F 73.0 °F 54% 29.86 in 10.0 mi SE 18.4 mph - N/A   Scattered Clouds
2:51 PM 91.9 °F 99.5 °F 72.0 °F 52% 29.85 in 10.0 mi SE 19.6 mph - N/A   Scattered Clouds
3:51 PM 91.9 °F 99.5 °F 72.0 °F 52% 29.84 in 10.0 mi SE 17.3 mph - N/A   Scattered Clouds
4:51 PM 91.0 °F 98.2 °F 72.0 °F 53% 29.84 in 10.0 mi SE 16.1 mph 26.5 mph N/A   Partly Cloudy
5:51 PM 88.0 °F 94.7 °F 72.0 °F 59% 29.84 in 10.0 mi SE 20.7 mph - N/A   Partly Cloudy
6:51 PM 84.9 °F 90.7 °F 72.0 °F 65% 29.85 in 10.0 mi SE 15.0 mph - N/A   Partly Cloudy
7:51 PM 82.0 °F 87.4 °F 73.0 °F 74% 29.86 in 10.0 mi SE 15.0 mph - N/A   Partly Cloudy
8:51 PM 81.0 °F 85.8 °F 73.0 °F 77% 29.87 in 10.0 mi SE 11.5 mph - N/A   Partly Cloudy
9:51 PM 80.1 °F 84.2 °F 73.0 °F 79% 29.89 in 10.0 mi SE 10.4 mph - N/A   Partly Cloudy
10:51 PM 79.0 °F - 73.0 °F 82% 29.90 in 10.0 mi SE 8.1 mph - N/A   Partly Cloudy
11:51 PM 78.1 °F - 73.0 °F 84% 29.89 in 10.0 mi SE 5.8 mph - N/A   Partly Cloudy